Weather History for Yankton, SD

Change the Weather History Date:

Friday, April 18, 2014

  Actual Average Record
Temperature  
Mean Temperature 49 °F -  
Max Temperature 68 °F 62 °F 92 °F (1985)
Min Temperature 30 °F 36 °F 15 °F (1953)
Degree Days  
Heating Degree Days 16    
Moisture  
Dew Point 33 °F    
Average Humidity 53    
Maximum Humidity 86    
Minimum Humidity 35    
Precipitation  
Precipitation 0.00 in - - ()
Sea Level Pressure  
Sea Level Pressure 30.09 in    
Wind  
Wind Speed 14 mph (SE)    
Max Wind Speed 30 mph    
Max Gust Speed 39 mph    
Visibility 10 miles    
Events      
Averages and records for this station are not official NWS values.
T = Trace of Precipitation, MM = Missing Value Source: NWS Daily Summary

Daily Weather History Graph

Daily Weather History Graph

Search for Another Location

Airport:

Trip Planner

Search our weather history database for the weather conditions in past years. The results will help you decide how hot, cold, wet, or windy it might be!

Date:

Astronomy

Apr. 18, 2014 Rise Set
Actual Time 6:42 AM CDT 8:15 PM CDT
Civil Twilight 6:13 AM CDT 8:45 PM CDT
Nautical Twilight 5:37 AM CDT 9:21 PM CDT
Astronomical Twilight 4:59 AM CDT 9:59 PM CDT
Moon No Moon Rise 9:02 AM CDT (4/18)
Length of Visible Light 14h 32m
Length of Day
13h 32m
Waning Gibbous, 87% of the Moon is Illuminated
Apr 18
Waning Gibbous
Apr 22
Last Quarter
Apr 29
New
May 6
First Quarter
May 14
Full

Hourly Weather History & Observations

Time (CDT) Temp. Windchill Dew Point Humidity Pressure Visibility Wind Dir Wind Speed Gust Speed Precip Events Conditions
12:15 AM 39.2 °F 34.2 °F 26.6 °F 61% 30.24 in 10.0 mi East 6.9 mph - N/A   Clear
12:35 AM 39.2 °F 33.6 °F 26.6 °F 61% 30.24 in 10.0 mi East 8.1 mph - N/A   Clear
12:55 AM 37.4 °F 31.4 °F 26.6 °F 65% 30.24 in 10.0 mi East 8.1 mph - N/A   Clear
1:15 AM 37.4 °F 32.8 °F 26.6 °F 65% 30.24 in 10.0 mi East 5.8 mph - N/A   Clear
1:35 AM 37.4 °F 32.1 °F 26.6 °F 65% 30.24 in 10.0 mi East 6.9 mph - N/A   Clear
1:55 AM 35.6 °F 29.9 °F 26.6 °F 70% 30.24 in 10.0 mi East 6.9 mph - N/A   Clear
2:15 AM 35.6 °F 28.6 °F 26.6 °F 70% 30.23 in 10.0 mi East 9.2 mph - N/A   Clear
2:35 AM 33.8 °F 27.7 °F 26.6 °F 75% 30.22 in 10.0 mi East 6.9 mph - N/A   Clear
2:55 AM 33.8 °F 27.0 °F 24.8 °F 70% 30.22 in 10.0 mi East 8.1 mph - N/A   Clear
3:15 AM 33.8 °F 27.7 °F 24.8 °F 70% 30.22 in 10.0 mi East 6.9 mph - N/A   Clear
3:35 AM 33.8 °F 27.7 °F 24.8 °F 70% 30.21 in 10.0 mi East 6.9 mph - N/A   Clear
3:55 AM 32.0 °F 24.8 °F 24.8 °F 75% 30.21 in 10.0 mi East 8.1 mph - N/A   Clear
4:15 AM 33.8 °F 27.7 °F 26.6 °F 75% 30.21 in 10.0 mi East 6.9 mph - N/A   Clear
4:35 AM 32.0 °F 25.6 °F 26.6 °F 80% 30.21 in 10.0 mi East 6.9 mph - N/A   Clear
4:55 AM 30.2 °F 23.4 °F 24.8 °F 80% 30.21 in 10.0 mi East 6.9 mph - N/A   Clear
5:15 AM 30.2 °F 22.6 °F 24.8 °F 80% 30.21 in 10.0 mi East 8.1 mph - N/A   Clear
5:35 AM 30.2 °F 21.9 °F 26.6 °F 86% 30.21 in 10.0 mi East 9.2 mph - N/A   Clear
5:55 AM 33.8 °F 26.4 °F 28.4 °F 81% 30.21 in 10.0 mi East 9.2 mph - N/A   Clear
6:15 AM 33.8 °F 26.4 °F 28.4 °F 81% 30.21 in 10.0 mi East 9.2 mph - N/A   Scattered Clouds
6:35 AM 33.8 °F 25.8 °F 28.4 °F 81% 30.20 in 10.0 mi East 10.4 mph - N/A   Partly Cloudy
6:55 AM 33.8 °F 25.8 °F 28.4 °F 81% 30.20 in 9.0 mi East 10.4 mph - N/A   Partly Cloudy
7:15 AM 33.8 °F 27.0 °F 28.4 °F 81% 30.20 in 8.0 mi East 8.1 mph - N/A   Mostly Cloudy
7:35 AM 35.6 °F 28.6 °F 28.4 °F 75% 30.20 in 9.0 mi East 9.2 mph - N/A   Mostly Cloudy
7:55 AM 35.6 °F 27.5 °F 28.4 °F 75% 30.20 in 9.0 mi East 11.5 mph - N/A   Mostly Cloudy
8:15 AM 37.4 °F 29.8 °F 28.4 °F 70% 30.19 in 9.0 mi ESE 11.5 mph 17.3 mph N/A   Scattered Clouds
8:35 AM 37.4 °F 29.8 °F 28.4 °F 70% 30.20 in 8.0 mi East 11.5 mph - N/A   Scattered Clouds
8:55 AM 39.2 °F 33.0 °F 30.2 °F 70% 30.19 in 8.0 mi ESE 9.2 mph - N/A   Clear
9:15 AM 42.8 °F 36.6 °F 30.2 °F 61% 30.19 in 9.0 mi ESE 11.5 mph - N/A   Clear
9:35 AM 44.6 °F 37.4 °F 30.2 °F 57% 30.18 in 9.0 mi SE 16.1 mph - N/A   Clear
9:55 AM 48.2 °F - 32.0 °F 54% 30.17 in 9.0 mi ESE 15.0 mph 21.9 mph N/A   Clear
10:15 AM 51.8 °F - 33.8 °F 50% 30.16 in 9.0 mi SE 17.3 mph 20.7 mph N/A   Clear
10:35 AM - - - N/A% 30.15 in 10.0 mi SSE 21.9 mph 27.6 mph N/A   Clear
10:55 AM 55.4 °F - 33.8 °F 44% 30.14 in 10.0 mi SSE 23.0 mph 28.8 mph N/A   Unknown
11:15 AM 57.2 °F - 33.8 °F 41% 30.13 in 10.0 mi SSE 24.2 mph 31.1 mph N/A   Unknown
11:35 AM 59.0 °F - 33.8 °F 39% 30.12 in 10.0 mi SSE 27.6 mph 33.4 mph N/A   Unknown
11:55 AM 60.8 °F - 35.6 °F 39% 30.12 in 10.0 mi SSE 24.2 mph 35.7 mph N/A   Clear
12:15 PM 60.8 °F - 35.6 °F 39% 30.12 in 10.0 mi SE 25.3 mph 35.7 mph N/A   Clear
12:35 PM 62.6 °F - 35.6 °F 37% 30.10 in 10.0 mi SSE 24.2 mph 38.0 mph N/A   Clear
12:55 PM 62.6 °F - 35.6 °F 37% 30.09 in 10.0 mi SSE 28.8 mph 35.7 mph N/A   Clear
1:15 PM 64.4 °F - 37.4 °F 37% 30.08 in 10.0 mi SSE 26.5 mph 35.7 mph N/A   Clear
1:35 PM 64.4 °F - 37.4 °F 37% 30.07 in 10.0 mi SSE 29.9 mph 39.1 mph N/A   Clear
1:55 PM 64.4 °F - 37.4 °F 37% 30.06 in 10.0 mi SE 28.8 mph 38.0 mph N/A   Clear
2:15 PM 66.2 °F - 37.4 °F 35% 30.06 in 10.0 mi South 29.9 mph 35.7 mph N/A   Clear
2:35 PM 66.2 °F - 37.4 °F 35% 30.05 in 10.0 mi SSE 26.5 mph 33.4 mph N/A   Clear
2:55 PM 66.2 °F - 39.2 °F 37% 30.03 in 10.0 mi South 21.9 mph 36.8 mph N/A   Clear
3:15 PM 66.2 °F - 39.2 °F 37% 30.02 in 10.0 mi SSE 26.5 mph 38.0 mph N/A   Clear
3:35 PM 68.0 °F - 39.2 °F 35% 30.01 in 10.0 mi SSE 26.5 mph 35.7 mph N/A   Clear
3:55 PM 68.0 °F - 39.2 °F 35% 30.01 in 9.0 mi South 27.6 mph 38.0 mph N/A   Clear
4:15 PM 68.0 °F - 39.2 °F 35% 30.00 in 9.0 mi SSE 29.9 mph 36.8 mph N/A   Clear
4:35 PM 68.0 °F - 39.2 °F 35% 29.98 in 9.0 mi South 26.5 mph 34.5 mph N/A   Clear
4:55 PM 68.0 °F - 39.2 °F 35% 29.97 in 9.0 mi SSE 27.6 mph 35.7 mph N/A   Clear
5:15 PM 68.0 °F - 39.2 °F 35% 29.97 in 10.0 mi SSE 23.0 mph 38.0 mph N/A   Clear
5:35 PM 68.0 °F - 39.2 °F 35% 29.96 in 10.0 mi South 27.6 mph 36.8 mph N/A   Clear
5:55 PM 68.0 °F - 39.2 °F 35% 29.96 in 10.0 mi SSE 23.0 mph 35.7 mph N/A   Clear
6:15 PM 68.0 °F - 39.2 °F 35% 29.96 in 10.0 mi SSE 24.2 mph 36.8 mph N/A   Clear
6:35 PM 66.2 °F - 39.2 °F 37% 29.95 in 10.0 mi SSE 21.9 mph 34.5 mph N/A   Clear
6:55 PM 66.2 °F - 39.2 °F 37% 29.95 in 10.0 mi SSE 18.4 mph 33.4 mph N/A   Clear
7:15 PM 66.2 °F - 39.2 °F 37% 29.94 in 10.0 mi SSE 21.9 mph 33.4 mph N/A   Clear
7:35 PM 66.2 °F - 39.2 °F 37% 29.94 in 10.0 mi SSE 17.3 mph 26.5 mph N/A   Clear
7:55 PM 64.4 °F - 39.2 °F 40% 29.94 in 10.0 mi SSE 18.4 mph 21.9 mph N/A   Clear
8:15 PM 64.4 °F - 39.2 °F 40% 29.93 in 10.0 mi SSE 20.7 mph 27.6 mph N/A   Clear
8:35 PM 64.4 °F - 39.2 °F 40% 29.93 in 10.0 mi SSE 19.6 mph 28.8 mph N/A   Clear
8:55 PM 64.4 °F - 39.2 °F 40% 29.93 in 10.0 mi SSE 23.0 mph 29.9 mph N/A   Clear
9:15 PM 62.6 °F - 39.2 °F 42% 29.93 in 10.0 mi SSE 21.9 mph 27.6 mph N/A   Clear
9:35 PM 60.8 °F - 39.2 °F 45% 29.93 in 10.0 mi SSE 20.7 mph 27.6 mph N/A   Clear
9:55 PM 60.8 °F - 39.2 °F 45% 29.93 in 10.0 mi SSE 20.7 mph 27.6 mph N/A   Clear
10:15 PM 60.8 °F - 39.2 °F 45% 29.93 in 10.0 mi SSE 20.7 mph 32.2 mph N/A   Clear
10:35 PM 60.8 °F - 37.4 °F 42% 29.92 in 10.0 mi SSE 23.0 mph 32.2 mph N/A   Clear
10:55 PM 60.8 °F - 37.4 °F 42% 29.93 in 10.0 mi SSE 23.0 mph 27.6 mph N/A   Clear
11:15 PM 59.0 °F - 39.2 °F 48% 29.93 in 10.0 mi SSE 20.7 mph 31.1 mph N/A   Clear
11:35 PM 59.0 °F - 39.2 °F 48% 29.94 in 10.0 mi SSE 16.1 mph 21.9 mph N/A   Clear
11:55 PM 57.2 °F - 39.2 °F 51% 29.92 in 10.0 mi SSE 24.2 mph 32.2 mph N/A   Clear